Tucumcari, NM

11:53 AM MST on December 10, 2016 (GMT -0700)
Tucumcari Municipal

Weather History for KTCC - April, 2014

Change the Weather History Date:

Monday, April 21, 2014

  Actual Average Record
Temperature  
Mean Temperature 64 °F -  
Max Temperature 82 °F 73 °F 95 °F (1989)
Min Temperature 46 °F 43 °F 28 °F (1907)
Degree Days  
Heating Degree Days 1    
Growing Degree Days 14 (Base 50)    
Moisture  
Dew Point 40 °F    
Average Humidity 42    
Maximum Humidity 80    
Minimum Humidity 20    
Precipitation  
Precipitation 0.00 in - - ()
Sea Level Pressure  
Sea Level Pressure 30.00 in    
Wind  
Wind Speed 10 mph (NNE)    
Max Wind Speed 24 mph    
Max Gust Speed 30 mph    
Visibility 10 miles    
Events Rain    
Averages and records for this station are not official NWS values.
T = Trace of Precipitation, MM = Missing Value Source: NWS Daily Summary

Daily Weather History Graph

Daily Weather History Graph

Search for Another Location

Airport or City:

Trip Planner

Search our weather history database for the weather conditions in past years. The results will help you decide how hot, cold, wet, or windy it might be!

Date:

Astronomy

Apr. 21, 2014 Rise Set
Actual Time 6:14 AM MDT 7:32 PM MDT
Civil Twilight 5:48 AM MDT 7:58 PM MDT
Nautical Twilight 5:16 AM MDT 8:30 PM MDT
Astronomical Twilight 4:43 AM MDT 9:03 PM MDT
Moon 1:00 AM MDT (4/21) 11:46 AM MDT (4/21)
Length of Visible Light 14h 10m
Length of Day
13h 17m
Waning Gibbous, 57% of the Moon is Illuminated
Apr 21
Waning Gibbous
Apr 22
Last Quarter
Apr 29
New
May 6
First Quarter
May 14
Full

Hourly Weather History & Observations

Time (MDT) Temp. Dew Point Humidity Pressure Visibility Wind Dir Wind Speed Gust Speed Precip Events Conditions
12:53 AM 53.1 °F 41.0 °F 64% 29.95 in 10.0 mi West 10.4 mph - N/A   Clear
1:53 AM 55.0 °F 42.1 °F 62% 29.93 in 10.0 mi West 12.7 mph - N/A   Clear
2:53 AM 53.1 °F 42.1 °F 66% 29.93 in 10.0 mi West 9.2 mph - N/A   Clear
3:53 AM 54.0 °F 42.1 °F 64% 29.95 in 10.0 mi WNW 8.1 mph - N/A   Clear
4:53 AM 55.9 °F 44.1 °F 64% 29.94 in 10.0 mi NW 8.1 mph - N/A   Clear
5:53 AM 46.9 °F 41.0 °F 80% 29.99 in 10.0 mi South 4.6 mph - N/A   Clear
6:53 AM 48.0 °F 42.1 °F 80% 30.01 in 10.0 mi SW 6.9 mph - N/A   Clear
7:53 AM 61.0 °F 45.0 °F 56% 30.01 in 10.0 mi NW 9.2 mph - N/A   Clear
8:53 AM 68.0 °F 41.0 °F 37% 30.02 in 10.0 mi NNW 11.5 mph - N/A   Clear
9:53 AM 73.0 °F 39.9 °F 30% 30.02 in 10.0 mi North 9.2 mph - N/A   Clear
10:53 AM 77.0 °F 39.0 °F 25% 30.02 in 10.0 mi NNE 8.1 mph 18.4 mph N/A   Clear
11:53 AM 78.1 °F 36.0 °F 22% 30.01 in 10.0 mi East 11.5 mph 23.0 mph N/A   Partly Cloudy
12:04 PM 80.1 °F 36.0 °F 20% 30.15 in 10.0 mi ENE 13.8 mph 24.2 mph N/A   Mostly Cloudy
12:53 PM 80.1 °F 36.0 °F 20% 30.01 in 10.0 mi East 16.1 mph 28.8 mph N/A   Scattered Clouds
1:53 PM 79.0 °F 37.9 °F 23% 30.00 in 10.0 mi ENE 15.0 mph 27.6 mph N/A   Scattered Clouds
2:53 PM 82.0 °F 39.9 °F 22% 29.98 in 10.0 mi NE 13.8 mph 21.9 mph N/A   Partly Cloudy
3:53 PM 80.1 °F 37.9 °F 22% 29.97 in 10.0 mi East 12.7 mph 20.7 mph N/A   Clear
4:53 PM 78.1 °F 36.0 °F 22% 29.98 in 10.0 mi North - - N/A   Overcast
5:27 PM 72.0 °F 46.9 °F 41% 30.12 in 10.0 mi North 24.2 mph 29.9 mph 0.00 in Rain Light Rain
5:53 PM 75.9 °F 42.1 °F 30% 30.01 in 10.0 mi NNE 15.0 mph - 0.00 in   Partly Cloudy
6:53 PM 72.0 °F 42.1 °F 34% 30.02 in 10.0 mi NNE 12.7 mph - N/A   Scattered Clouds
7:53 PM 66.9 °F 41.0 °F 39% 30.01 in 10.0 mi NNE 8.1 mph - N/A   Mostly Cloudy
8:53 PM 66.9 °F 41.0 °F 39% 30.02 in 10.0 mi North 6.9 mph - N/A   Overcast
9:53 PM 63.0 °F 39.9 °F 43% 30.02 in 10.0 mi ENE 8.1 mph - N/A   Mostly Cloudy
10:53 PM 60.1 °F 39.0 °F 46% 30.03 in 10.0 mi Calm Calm - N/A   Clear
11:53 PM 59.0 °F 37.9 °F 46% 30.02 in 10.0 mi East 5.8 mph - N/A   Clear